Simultaneous Nadir Overpasses (SNOs) Predictions

Prediction of SNOs between TERRA and METOP-C Satellite Orbit:

Table of predicted SNOs for the next 14.0 days since TLE Epoch: 9/19/2020
Index Date (TERRA) Time (TERRA) Lat,Lon (TERRA) SZA (TERRA ) Date (METOP-C) Time (METOP-C) Lat,Lon (METOP-C) SZA (METOP-C ) Distance(km) Time Diff (sec)
1 09/21/2020 03:41:27 -81.33, -7.64 96.20 09/21/2020 03:41:24 -81.32, -7.50 96.19 2.42 3
2 09/21/2020 04:30:53 81.33, 160.13 83.84 09/21/2020 04:32:04 81.33, 159.99 83.85 2.56 71
3 09/23/2020 22:26:17 81.32,-109.08 84.87 09/23/2020 22:25:05 81.32,-109.05 84.84 0.44 72
4 09/23/2020 23:15:44 -81.31, 58.50 95.13 09/23/2020 23:15:46 -81.32, 58.40 95.13 1.80 2
5 09/24/2020 00:04:47 81.69,-124.58 86.22 09/24/2020 00:05:53 81.28,-121.15 86.50 72.23 66
6 09/26/2020 18:00:34 81.31, -42.75 85.98 09/26/2020 17:59:26 81.31, -42.84 85.93 1.62 68
7 09/26/2020 18:50:00 -81.33, 125.25 93.96 09/26/2020 18:50:06 -81.32, 125.06 93.99 3.25 6
8 09/29/2020 13:34:50 81.32, 23.81 87.11 09/29/2020 13:33:45 81.31, 23.75 87.07 1.09 65
9 09/29/2020 14:24:17 -81.32,-168.54 92.88 09/29/2020 14:24:26 -81.32,-168.68 92.89 2.37 9
10 10/02/2020 09:09:08 81.32, 90.21 88.22 10/02/2020 09:08:05 81.32, 90.32 88.20 1.87 63



Historial Predications of SNOs between TERRA and METOP-C
